Regional Weather Roundup
Issued by NWS

Home | Current Version | Previous Version | Graphics & Text | Print | Product List | Glossary On
Versions: 1 2 3 4 5 6 7 8 9 10 11 12 13 14 15 16 17 18 19 20 21 22 23 24 25 26 27 28 29 30 31 32 33 34 35 36 37 38 39 40 41 42 43 44 45 46 47 48 49 50
000
ASUS43 KMPX 282201
RWRMN
WEATHER ROUNDUP FOR MINNESOTA
NATIONAL WEATHER SERVICE TWIN CITIES/CHANHASSEN MN
500 PM CDT THU APR 28 2016


NOTE: "FAIR" INDICATES FEW OR NO CLOUDS BELOW 12,000 FEET WITH NO
SIGNIFICANT WEATHER AND/OR OBSTRUCTIONS TO VISIBILITY. N/A MEANS
CURRENT SKY AND/OR WEATHER CONDITIONS ARE NOT AVAILABLE.

MNZ060>063-068>070-282300-
   Twin Cities Metro

CITY           SKY/WX    TMP DP  RH WIND       PRES   REMARKS
TWIN CITIES    LGT RAIN  41  35  79 NE10      30.06R
ST PAUL        LGT RAIN  41  36  82 E8        30.07R
CRYSTAL        LGT RAIN  42  35  76 E8        30.05R
BLAINE         LGT RAIN  43  39  87 E3        30.05R
EDEN PRAIRIE   LGT RAIN  41  35  79 NE12      30.03R
SOUTH ST PAUL  LGT RAIN  40  38  91 E8        30.06R
LAKE ELMO      LGT RAIN  41  37  87 CALM      30.05S
$$
MNZ001>005-007-008-013>017-022>024-027-028-282300-
   Northwest Minnesota

CITY           SKY/WX    TMP DP  RH WIND       PRES   REMARKS
BEMIDJI        MOSUNNY   54  25  32 NE12G18   30.07R
HALLOCK        SUNNY     61  16  17 NE9G18    30.13S
ROSEAU         SUNNY     54  27  35 E16       30.14S
WARROAD        SUNNY     52  25  35 E8        30.16S
THIEF RVR FALL PTSUNNY   55  23  28 NE10      30.12R
CROOKSTON      MOSUNNY   57  25  28 NE12G17   30.11S
FOSSTON        PTSUNNY   57  27  30 NE13G20   30.09S
DETROIT LAKES  CLOUDY    54  21  28 NE9       30.06S
MOORHEAD       CLOUDY    57  21  24 E8        30.06S
PARK RAPIDS    MOSUNNY   56  22  26 NE8       30.05S
MAHNOMEN       FAIR      58  25  28 E10G17    30.06S
$$
MNZ006-009>011-018-025>026-282300-
   North Central Minnesota

CITY           SKY/WX    TMP DP  RH WIND       PRES   REMARKS
BAUDETTE       SUNNY     57  23  26 CALM      30.11F
FLAG ISLAND    SUNNY     50  19  29 N14       30.14F
INTL FALLS     SUNNY     54  26  34 N10       30.11S
WASKISH        MOSUNNY   54  28  37 NE9G18    30.11S
BIG FORK       MOSUNNY   55  25  30 NE7       30.09R
LONGVILLE      MOSUNNY   57  25  28 N6        30.04S
GRAND RAPIDS   MOSUNNY   55  23  28 E5        30.08R
CRANE LAKE     SUNNY     54  25  32 E6        30.12S
ORR            MOSUNNY   54  19  26 CALM      30.08S
COOK           MOSUNNY   52  27  37 NE6       30.10R
WALKER         CLOUDY    52  25  35 NE5       30.06S
$$
MNZ012-019>021-037-282300-
   Northeast Minnesota

CITY           SKY/WX    TMP DP  RH WIND       PRES   REMARKS
DULUTH         MOSUNNY   45  26  47 E14       30.09S
ELY            CLOUDY    52  25  35 N7        30.09S
HIBBING        SUNNY     54  25  32 VRB5      30.06S
EVELETH        SUNNY     57  25  28 N3        30.07S
DULUTH HARBOR  PTSUNNY   39  34  81 NE17      30.13S
TWO HARBORS    CLOUDY    46  30  53 E16       30.09S
SILVER BAY     CLOUDY    45  27  49 NE12      30.10F
GRAND MARAIS     N/A     39  31  72 NE9       30.14S
G MARAIS ARPRT MOSUNNY   45  25  45 E10       30.11R
$$
MNZ029>031-032-039>041-046>048-054>057-064-282300-
   West Central Minnesota

CITY           SKY/WX    TMP DP  RH WIND       PRES   REMARKS
FERGUS FALLS   CLOUDY    54  27  35 NE6       30.04R
WHEATON        CLOUDY    48  39  71 SE9       30.09R
MORRIS         PTSUNNY   45  39  81 NE7       30.06S
ALEXANDRIA     CLOUDY    45  37  73 SE7       30.06S
ELBOW LAKE     CLOUDY    49  31  48 SE8       30.06S
WADENA         PTSUNNY   55  27  33 NE12      30.03S
GLENWOOD       PTSUNNY   43  37  81 E14       30.06S
APPLETON       CLOUDY    39  37  93 NE6       30.06S
BENSON         CLOUDY    43  36  75 E6        30.06S
ORTONVILLE     LGT RAIN  39  37  93 NE8       30.07S
MADISON        CLOUDY    37  37 100 N8        30.06S
WILLMAR        CLOUDY    43  43 100 E13G18    30.06R
$$
MNZ033>034-036-042>043-049>051-058-059-282300-
   Central Minnesota

CITY           SKY/WX    TMP DP  RH WIND       PRES   REMARKS
ST CLOUD       LGT RAIN  42  37  82 E6        30.06R
SAUK CENTRE    CLOUDY    43  36  76 SE9       30.06S
PAYNESVILLE    CLOUDY    44  36  72 E9        30.06S
AITKIN         CLOUDY    55  16  21 E9        30.04R
PINE RIVER     SUNNY     57  30  35 E8        30.06S
BRAINERD       CLOUDY    54  20  26 E8        30.04S
STAPLES        CLOUDY    54  19  26 E8        30.04R
LONG PRAIRIE   CLOUDY    43  36  75 SE9       30.05S
LITTLE FALLS   CLOUDY    45  36  70 SE6       30.06R
LITCHFIELD     CLOUDY    45  39  81 E8        30.05R
BUFFALO        RAIN      41  36  82 E7        30.06S
MAPLE LAKE     LGT RAIN  43  38  85 NE7       30.07R
HUTCHINSON     CLOUDY    43  37  79 NE15      30.05R
$$
MNZ037-044-045-052-053-282300-
   East Central Minnesota

CITY           SKY/WX    TMP DP  RH WIND       PRES   REMARKS
PRINCETON      LGT RAIN  45  37  76 CALM      30.06S
MORA           DRIZZLE   50  32  50 N3        30.06R
CAMBRIDGE      LGT RAIN  48  36  61 NE9       30.04R
RUSH CITY      CLOUDY    46  35  63 E12G17    30.05R
MOOSE LAKE     CLOUDY    45  23  42 NE15G21   30.06S
HINCKLEY       CLOUDY    50  32  50 N13       30.05R
CLOQUET        CLOUDY    45  18  33 E13G20    30.09R
MCGREGOR       CLOUDY    52  25  35 E12G18    30.07R
$$
MNZ071>073-080-081-089-090-097-098-282300-
   Southwest Minnesota

CITY           SKY/WX    TMP DP  RH WIND       PRES   REMARKS
MONTEVIDEO     CLOUDY    39  37  93 NE7       30.07S
GRANITE FALLS  CLOUDY    40  37  90 N7        30.06R
CANBY          CLOUDY    40  39  95 N9        30.07R
MARSHALL       CLOUDY    38  35  89 NE10      30.04S
REDWOOD FALLS  CLOUDY    41  37  86 E6        30.03S
OLIVIA         CLOUDY    41  36  81 E7        30.03S
PIPESTONE      CLOUDY    37  36  93 NE7       30.02R
WINDOM         CLOUDY    39  37  93 N10       30.01R
WORTHINGTON    CLOUDY    39  36  89 NE9       30.01R
JACKSON        CLOUDY    41  36  81 NE6       30.01R
TRACY          CLOUDY    40  37  89 NE9       30.03R
SLAYTON        CLOUDY    38  37  99 NE7       30.02R
$$
MNZ065>067-074>077-082>085-091>093-282300-
   South Central Minnesota

CITY           SKY/WX    TMP DP  RH WIND       PRES   REMARKS
MANKATO        CLOUDY    39  36  87 E10       30.02R
NEW ULM        CLOUDY    39  37  93 NE8       30.02R
ST JAMES       CLOUDY    36  34  93 NE7       30.02R
FAIRMONT       CLOUDY    41  30  65 NE9       29.99S
GLENCOE        CLOUDY    43  39  87 NE12G17   30.03R
OWATONNA       CLOUDY    39  36  87 NE9       30.01R
WASECA         CLOUDY    39  36  87 NE9       30.02R
$$
MNZ078>079-086>088-094>096-282300-
   Southeast Minnesota

CITY           SKY/WX    TMP DP  RH WIND       PRES   REMARKS
ROCHESTER      LGT RAIN  40  38  93 NE12      29.99R
RED WING       LGT RAIN  41  37  87 E6        30.03R
STANTON        CLOUDY    40  36  86 NE14      30.02R
DODGE CENTER   CLOUDY    39  37  93 NE13      29.98F
WINONA         CLOUDY    41  37  87 E3        30.02R
AUSTIN         CLOUDY    41  37  87 NE7       29.98R
PRESTON        CLOUDY    39  36  88 NE8       29.98R
$$
ABBREVIATIONS USED IN REMARKS
   TC - TEMPERATURES IN CELSIUS
  WCI - WIND CHILL INDEX
   HX - HEAT INDEX
  VSB - VISIBILITY
$$



USA.gov is the U.S. government's official web portal to all federal, state and local government web resources and services.